Crosby, ND

7:48 PM CST on December 13, 2019 (GMT -0600)
Crosby

Weather History for KD50 - August, 2019

Change the Weather History Date:

Saturday, August 17, 2019

  Actual Average (KISN) Record (KISN)
Temperature  
Mean Temperature 56 °F -  
Max Temperature 64 °F 81 °F 102 °F (1996)
Min Temperature 48 °F 53 °F 37 °F (1977)
Degree Days  
Heating Degree Days 9    
Growing Degree Days 6 (Base 50)    
Moisture  
Dew Point 46 °F    
Average Humidity 68    
Maximum Humidity 100    
Minimum Humidity 39    
Precipitation  
Precipitation 0.00 in - - ()
Sea Level Pressure  
Sea Level Pressure 29.80 in    
Wind  
Wind Speed 10 mph (WNW)    
Max Wind Speed 20 mph    
Max Gust Speed 24 mph    
Visibility 10 miles    
Events      
Averages and records for this station are not official NWS values.
T = Trace of Precipitation, MM = Missing Value Source: NWS Daily Summary

Daily Weather History Graph

Daily Weather History Graph

Search for Another Location

Airport or City:

Astronomy

Aug. 17, 2019 Rise Set
Actual Time 6:48 AM CDT 9:05 PM CDT
Civil Twilight 6:13 AM CDT 9:39 PM CDT
Nautical Twilight 5:30 AM CDT 10:23 PM CDT
Astronomical Twilight 4:40 AM CDT 11:12 PM CDT
Moon 10:25 PM CDT (8/17) 8:44 AM CDT (8/17)
Length of Visible Light 15h 26m
Length of Day
14h 16m
Waning Gibbous, 96% of the Moon is Illuminated
Aug 17
Waning Gibbous
Aug 23
Last Quarter
Aug 30
New
Sep 5
First Quarter
Sep 13
Full

Hourly Weather History & Observations

Time (CDT) Temp. Dew Point Humidity Pressure Visibility Wind Dir Wind Speed Gust Speed Precip Events Conditions
12:15 AM 60.8 °F 55.4 °F 82% 29.76 in 10.0 mi West 5.8 mph - N/A   Overcast
12:35 AM 60.8 °F 55.4 °F 82% 29.77 in 10.0 mi WNW 9.2 mph - N/A   Overcast
12:55 AM 60.8 °F 57.2 °F 88% 29.77 in 10.0 mi WNW 9.2 mph - N/A   Mostly Cloudy
1:15 AM 60.8 °F 57.2 °F 88% 29.78 in 10.0 mi WNW 12.7 mph - N/A   Scattered Clouds
1:35 AM 59.0 °F 55.4 °F 88% 29.78 in 10.0 mi NW 10.4 mph - N/A   Scattered Clouds
1:55 AM 59.0 °F 55.4 °F 88% 29.79 in 10.0 mi WNW 9.2 mph - N/A   Partly Cloudy
2:15 AM 59.0 °F 55.4 °F 88% 29.79 in 10.0 mi WNW 9.2 mph - N/A   Clear
2:35 AM 57.2 °F 55.4 °F 94% 29.78 in 10.0 mi WNW 8.1 mph - N/A   Clear
2:55 AM 57.2 °F 55.4 °F 94% 29.78 in 10.0 mi WNW 8.1 mph - N/A   Mostly Cloudy
3:15 AM 57.2 °F 55.4 °F 94% 29.78 in 10.0 mi WNW 8.1 mph - N/A   Mostly Cloudy
3:35 AM 57.2 °F 55.4 °F 94% 29.78 in 10.0 mi WNW 8.1 mph - N/A   Mostly Cloudy
3:55 AM 57.2 °F 55.4 °F 94% 29.78 in 10.0 mi WNW 8.1 mph - N/A   Overcast
4:15 AM 57.2 °F 55.4 °F 94% 29.78 in 10.0 mi WNW 8.1 mph - N/A   Overcast
4:35 AM 57.2 °F 55.4 °F 94% 29.78 in 10.0 mi WNW 9.2 mph - N/A   Overcast
4:55 AM 57.2 °F 53.6 °F 88% 29.79 in 10.0 mi WNW 9.2 mph - N/A   Mostly Cloudy
5:15 AM 55.4 °F 53.6 °F 94% 29.78 in 10.0 mi WNW 9.2 mph - N/A   Mostly Cloudy
5:35 AM 55.4 °F 53.6 °F 94% 29.78 in 10.0 mi WNW 10.4 mph - N/A   Overcast
5:55 AM 55.4 °F 53.6 °F 94% 29.79 in 10.0 mi WNW 10.4 mph - N/A   Overcast
6:15 AM 55.4 °F 53.6 °F 94% 29.79 in 10.0 mi WNW 10.4 mph - N/A   Overcast
6:35 AM 53.6 °F 51.8 °F 94% 29.80 in 10.0 mi WNW 9.2 mph - N/A   Mostly Cloudy
6:55 AM 53.6 °F 53.6 °F 100% 29.80 in 10.0 mi WNW 12.7 mph - N/A   Overcast
7:15 AM 53.6 °F 51.8 °F 94% 29.81 in 10.0 mi NW 9.2 mph - N/A   Overcast
7:55 AM 51.8 °F 50.0 °F 94% 29.82 in 10.0 mi NW 9.2 mph - N/A   Partly Cloudy
8:15 AM 51.8 °F 48.2 °F 88% 29.82 in 10.0 mi NW 6.9 mph - N/A   Clear
8:35 AM 53.6 °F 46.4 °F 77% 29.83 in 10.0 mi NW 17.3 mph 24.2 mph N/A   Partly Cloudy
8:55 AM 53.6 °F 46.4 °F 77% 29.82 in 10.0 mi NW 15.0 mph 21.9 mph N/A   Partly Cloudy
9:15 AM 53.6 °F 46.4 °F 77% 29.83 in 10.0 mi NW 17.3 mph - N/A   Partly Cloudy
9:35 AM 53.6 °F 46.4 °F 77% 29.83 in 10.0 mi NW 15.0 mph 20.7 mph N/A   Scattered Clouds
9:55 AM 53.6 °F 44.6 °F 72% 29.83 in 10.0 mi WNW 15.0 mph - N/A   Partly Cloudy
10:15 AM 53.6 °F 44.6 °F 72% 29.83 in 10.0 mi NW 12.7 mph - N/A   Scattered Clouds
10:35 AM 55.4 °F 42.8 °F 63% 29.83 in 10.0 mi WNW 11.5 mph - N/A   Scattered Clouds
10:55 AM 55.4 °F 42.8 °F 63% 29.82 in 10.0 mi NW 9.2 mph 15.0 mph N/A   Mostly Cloudy
11:15 AM 57.2 °F 41.0 °F 55% 29.83 in 10.0 mi WNW 11.5 mph - N/A   Scattered Clouds
11:35 AM 57.2 °F 41.0 °F 55% 29.82 in 10.0 mi WNW 10.4 mph 17.3 mph N/A   Mostly Cloudy
11:55 AM 59.0 °F 41.0 °F 51% 29.83 in 10.0 mi WNW 12.7 mph - N/A   Mostly Cloudy
12:15 PM 59.0 °F 41.0 °F 51% 29.83 in 10.0 mi WNW 11.5 mph - N/A   Mostly Cloudy
12:35 PM 59.0 °F 41.0 °F 51% 29.82 in 10.0 mi WNW 12.7 mph - N/A   Mostly Cloudy
12:55 PM 62.6 °F 42.8 °F 48% 29.82 in 10.0 mi West 12.7 mph 18.4 mph N/A   Mostly Cloudy
1:15 PM 60.8 °F 42.8 °F 52% 29.83 in 10.0 mi WNW 15.0 mph 21.9 mph N/A   Overcast
1:35 PM 60.8 °F 41.0 °F 48% 29.82 in 10.0 mi WNW 15.0 mph - N/A   Overcast
1:55 PM 60.8 °F 41.0 °F 48% 29.82 in 10.0 mi West 11.5 mph - N/A   Mostly Cloudy
2:15 PM 62.6 °F 41.0 °F 45% 29.82 in 10.0 mi WNW 13.8 mph - N/A   Scattered Clouds
2:35 PM 62.6 °F 41.0 °F 45% 29.82 in 10.0 mi West 16.1 mph 21.9 mph N/A   Mostly Cloudy
2:55 PM 62.6 °F 39.2 °F 42% 29.82 in 10.0 mi West 16.1 mph - N/A   Scattered Clouds
3:15 PM 60.8 °F 39.2 °F 45% 29.82 in 10.0 mi WNW 17.3 mph - N/A   Clear
3:35 PM 60.8 °F 39.2 °F 45% 29.81 in 10.0 mi West 15.0 mph 20.7 mph N/A   Clear
3:55 PM 60.8 °F 39.2 °F 45% 29.82 in 10.0 mi West 13.8 mph 20.7 mph N/A   Clear
4:15 PM 60.8 °F 39.2 °F 45% 29.82 in 10.0 mi West 13.8 mph 19.6 mph N/A   Partly Cloudy
4:35 PM 60.8 °F 39.2 °F 45% 29.82 in 10.0 mi WNW 13.8 mph - N/A   Scattered Clouds
4:55 PM 60.8 °F 39.2 °F 45% 29.82 in 10.0 mi West 12.7 mph 18.4 mph N/A   Partly Cloudy
5:15 PM 60.8 °F 41.0 °F 48% 29.81 in 10.0 mi West 9.2 mph 19.6 mph N/A   Clear
5:55 PM 62.6 °F 39.2 °F 42% 29.81 in 10.0 mi West 15.0 mph 24.2 mph N/A   Clear
6:15 PM 64.4 °F 39.2 °F 40% 29.80 in 10.0 mi West 19.6 mph - N/A   Clear
6:35 PM 62.6 °F 37.4 °F 39% 29.80 in 10.0 mi WNW 13.8 mph 20.7 mph N/A   Partly Cloudy
6:55 PM 62.6 °F 37.4 °F 39% 29.80 in 10.0 mi WNW 13.8 mph 20.7 mph N/A   Mostly Cloudy
7:15 PM 62.6 °F 39.2 °F 42% 29.80 in 10.0 mi West 12.7 mph 21.9 mph N/A   Mostly Cloudy
7:35 PM 62.6 °F 39.2 °F 42% 29.79 in 10.0 mi West 12.7 mph - N/A   Clear
7:55 PM 60.8 °F 41.0 °F 48% 29.79 in 10.0 mi West 15.0 mph - N/A   Partly Cloudy
8:15 PM 60.8 °F 41.0 °F 48% 29.79 in 10.0 mi West 10.4 mph - N/A   Scattered Clouds
8:35 PM 59.0 °F 42.8 °F 55% 29.79 in 10.0 mi West 9.2 mph - N/A   Partly Cloudy
8:55 PM 57.2 °F 42.8 °F 59% 29.79 in 10.0 mi West 8.1 mph - N/A   Clear
9:15 PM 53.6 °F 42.8 °F 67% 29.79 in 10.0 mi West 9.2 mph - N/A   Clear
9:35 PM 51.8 °F 41.0 °F 67% 29.80 in 10.0 mi WSW 6.9 mph - N/A   Clear
9:55 PM 48.2 °F 42.8 °F 82% 29.80 in 10.0 mi WSW 8.1 mph - N/A   Clear
10:15 PM 51.8 °F 39.2 °F 62% 29.80 in 10.0 mi West 9.2 mph - N/A   Clear
10:35 PM 51.8 °F 39.2 °F 62% 29.81 in 10.0 mi West 9.2 mph - N/A   Clear
10:55 PM 50.0 °F 39.2 °F 66% 29.81 in 10.0 mi WSW 8.1 mph - N/A   Clear
11:15 PM 50.0 °F 41.0 °F 71% 29.81 in 10.0 mi WSW 9.2 mph - N/A   Clear
11:35 PM 50.0 °F 41.0 °F 71% 29.81 in 10.0 mi WSW 8.1 mph - N/A   Clear